Location: Mainz-Finthen
(49.9906°N, 8.1713°E)
Time: 06:36:54
(UTC+00:00)

N. Korean satellite - Pass Details

Date: 07 December 2022
Orbit: 407 x 442 km, 97.3° (Epoch: 04 February)

Event Time Altitude Azimuth Distance (km) Brightness Sun altitude
Rises 16:43:20 0° 201° (SSW) 2,465 10.8 -11.7°
Reaches altitude 10° 16:45:45 10° 219° (SW) 1,607 10.2 -12.1°
Maximum altitude 16:48:20 20° 267° (W) 1,147 9.5 -12.5°
Drops below altitude 10° 16:50:58 10° 316° (NW) 1,633 9.5 -12.9°
Sets 16:53:28 0° 334° (NNW) 2,520 10.3 -13.3°
